Location: Ash Shall?l al Awwal
(24.0167°N, 32.8667°E)
Time: 16:31:17
(UTC+00:00)

Daily predictions for brighter satellites

Satellite Brightness Start Highest point End
(mag) Time Altitude Azimuth Time Altitude Azimuth Time Altitude Azimuth
GPS 2-15 Rocket1 4.5 16:03:44 10° WSW 16:08:12 35° SSW 16:12:42 10° SE
Meteor 1-27 Rocket 3.7 16:06:28 10° N 16:12:01 86° E 16:17:38 10° S
Cosmos 1707 Rocket 3.8 16:11:30 10° N 16:15:41 46° E 16:19:50 10° SSE
Cosmos 2219 Rocket 3.7 16:13:49 10° SE 16:16:41 14° E 16:19:33 10° ENE
Okean-O 3.3 16:17:20 10° SE 16:21:16 32° ENE 16:25:13 10° N
SL-16 R/B 3.2 16:15:53 10° SW 16:21:21 51° WNW 16:26:52 10° N
Cosmos 44 4.5 16:16:41 10° NW 16:21:55 52° WSW 16:26:55 10° S
TSX-5 3.3 16:18:30 10° NNW 16:21:56 61° ENE 16:25:01 10° SSE
Cosmos 1939 Rocket 4.4 16:19:35 10° S 16:23:14 40° W 16:26:52 10° NNW
Cosmos 2181 Rocket 4.3 16:17:08 10° N 16:23:31 75° W 16:29:49 10° S
CZ-4 R/B 1.5 16:22:27 10° SSE 16:26:07 45° ENE 16:29:48 10° N
CZ-4B R/B 4.3 16:24:26 10° NNW 16:26:45 20° WNW 16:29:06 10° SW
ARGOS 3.8 16:23:12 10° SE 16:27:58 33° ENE 16:32:45 10° N
Palapa 6 Rocket 4.4 16:22:33 10° WSW 16:29:40 76° S 16:36:50 14° E
Cosmos 2322 4.5 16:27:57 10° SSE 16:32:52 30° ESE 16:37:47 10° NE
Okean 1 4.0 16:32:29 10° NNE 16:36:07 32° E 16:39:45 10° SSE
Cosmos 2263 Rocket 2.1 16:30:42 10° N 16:36:13 64° ENE 16:41:43 10° SSE
SJ-11-01 4.4 16:33:02 10° SSE 16:37:33 53° ENE 16:42:06 10° N
Delta 7925 Rocket 3.2 16:33:38 10° W 16:38:25 71° N 16:41:56 17° ENE
Cosmos 2237 4.4 16:32:47 10° SSW 16:38:29 77° WNW 16:44:13 10° NNE
ATLAS CENTAUR R/B 2.2 16:36:52 10° SW 16:40:23 43° WNW 16:43:51 10° N
Cosmos 1470 Rocket 3.6 16:36:48 10° S 16:41:16 87° E 16:45:44 10° N
GPS 2-14 Rocket1 3.1 16:39:22 10° WSW 16:43:03 47° S 16:45:22 20° ESE
Cosmos 1515 3.8 16:44:23 10° N 16:48:05 49° E 16:51:45 10° SSE
Meteor 2-12 Rocket 4.4 16:44:34 10° S 16:50:37 90° W 16:56:42 10° N
IRS-1C Rocket 4.4 16:45:24 10° S 16:50:38 72° WSW 16:55:54 10° NNW
CZ-2C R/B 2.6 16:46:08 10° NNE 16:51:33 89° E 16:56:50 10° SSW
SWIFT 2.9 16:47:55 10° WSW 16:51:54 44° S 16:53:59 24° ESE
H-2A R/B 2.2 16:46:59 10° SSE 16:52:21 86° WSW 16:57:49 10° NNW
CSL-04 Rocket 3.8 16:53:12 10° SSE 16:58:33 52° ENE 17:03:55 10° N
CSL-04 Debris 4.2 16:53:20 10° SSE 16:58:36 57° ENE 17:03:55 10° N
USA 234 4.4 16:54:20 10° NNE 17:00:19 40° NW 17:06:18 10° WSW
Meteor 1-5 Rocket 4.0 16:55:57 10° S 17:01:10 65° E 17:06:30 10° NNE
Lacrosse 5 rocket 4.2 16:58:49 10° W 17:01:21 16° WSW 17:03:46 10° SSW
Cosmos 1486 Rocket 4.1 16:56:34 10° N 17:01:45 53° ENE 17:06:55 10° SSE
Cosmos 1933 Rocket 3.6 16:58:00 10° S 17:02:19 82° W 17:06:41 10° N
Cosmos 968 Rocket 3.4 16:57:39 10° N 17:02:52 65° ENE 17:08:03 10° SSE
Cosmos 2333 4.1 16:57:46 10° S 17:03:20 73° ESE 17:08:58 10° NNE
Yuri Rocket 4.4 16:54:26 10° WNW 17:03:24 74° SSW 17:07:39 24° ESE
DMSP B5D2-2 3.9 17:01:59 10° NNE 17:07:12 80° ESE 17:12:23 10° S
APEX 2.2 17:04:47 10° NNW 17:07:29 88° ENE 17:07:40 77° SSE
Cosmos 1666 2.5 17:06:43 10° S 17:10:23 63° E 17:14:03 10° NNE
Cosmos 1844 Rocket 4.1 17:07:28 10° NNE 17:10:05 19° NE 17:10:05 19° NE
Cosmos 2360 Rocket 3.4 17:06:58 10° SW 17:12:17 43° WNW 17:17:38 10° N
Nadezhda 3 Rocket 4.1 17:10:28 10° N 17:16:51 83° W 17:23:11 10° S
Cosmos 1862 Rocket 4.2 17:13:35 10° NNW 17:17:58 56° W 17:22:19 10° S
Cosmos 2242 Rocket 4.4 17:14:20 10° N 17:17:14 34° NE 17:17:14 34° NE
Cosmos 2333 Rocket 2.1 17:12:59 10° SSW 17:18:37 78° ESE 17:24:17 10° NNE
YAOGAN 1 4.1 17:15:37 10° SSW 17:19:36 37° W 17:23:37 10° NNW
NOSS 3-2 (A) 3.6 17:14:57 10° S 17:19:18 37° SE 17:19:18 37° SE
Meteor 1-19 Rocket 4.4 17:14:34 10° N 17:20:25 76° W 17:26:03 10° S
GP-B 3.2 17:18:35 10° S 17:22:59 75° W 17:27:25 10° N
GPS 2-12 Rocket1 4.2 17:21:30 10° SW 17:25:45 31° SSE 17:25:56 31° SSE
Meteor 2-4 Rocket 3.7 17:23:37 10° N 17:29:29 71° E 17:35:23 10° SSE
Lacrosse 4 Rocket 1.5 17:25:44 10° SSW 17:30:01 80° WNW 17:31:08 49° N
ATLAS 2A CENTAUR R/B 4.3 16:29:04 10° W 17:31:46 85° SSW 17:38:12 36° ESE
Helios 1A Rocket 4.0 17:29:50 10° S 17:33:44 44° W 17:37:37 10° NNW
DELTA 2 R/B (1) 4.3 17:31:23 10° WSW 17:36:41 46° NNW 17:38:32 34° NNE
Cosmos 1503 Rocket 4.1 17:33:17 10° N 17:37:41 58° NNE 17:37:41 58° NNE
SL-8 Rocket 4.2 17:36:59 10° SSW 17:43:13 70° W 17:49:25 10° N
H-2A R/B 3.7 17:40:06 10° SW 17:44:11 18° S 17:44:11 18° S
Hubble Space Telescope 1.9 17:42:03 10° WSW 17:44:45 39° SW 17:44:45 39° SW
SME Rocket 4.0 17:40:38 10° N 17:46:55 62° WNW 17:51:15 10° SSW
Meteor 1-11 Rocket 3.7 17:42:08 10° S 17:47:57 81° W 17:53:40 10° N
COSMOS 2428 2.7 17:42:45 10° SSW 17:48:25 78° WNW 17:50:33 40° N
CENTAUR R/B 4.3 17:44:11 10° S 17:44:32 12° S 17:44:32 12° S
FUSE 3.9 17:44:12 10° W 17:49:17 77° NW 17:49:17 77° NW
Cosmos 44 Rocket 3.9 17:49:24 10° NNW 17:53:23 54° NNW 17:53:23 54° NNW
Cosmos 2366 rocket 4.3 17:51:20 10° SSW 17:57:31 67° W 18:03:48 10° N
Cosmos 2219 Rocket 3.0 17:54:47 10° SW 18:00:07 47° WNW 18:04:10 17° N
Delta 2 Rocket 3.8 17:54:27 10° W 18:00:13 77° WNW 18:00:13 77° WNW
Palapa 6 Rocket 4.4 18:11:29 10° W 18:18:42 76° SW 18:18:42 76° SW
Centaur AC-64 4.3 18:16:56 10° W 18:36:27 65° WSW 18:36:27 65° WSW
